FW8499 Weather Reports


time (UTC)temp
F
wind
direction
speed
knots
gust
knots
rain 1hr
in
rain 24hr
in
rain mn
in
humidity
%
barometer
mb
20260508074904 54 170 2.6 6.1 0.00 0.00 0.00 76 1017.2
20260508074404 53 124 2.6 6.1 0.00 0.00 0.00 77 1017.2
20260508073404 52 160 1.7 6.1 0.00 0.00 0.00 78 1017.4
20260508072903 52 179 1.7 6.1 0.00 0.00 0.00 80 1017.3
20260508072403 52 140 2.6 6.1 0.00 0.00 0.00 82 1017.3
20260508071904 51 137 1.7 5.2 0.00 0.00 0.00 83 1017.2
20260508071404 51 136 1.7 6.1 0.00 0.00 0.00 83 1017.2
20260508070904 51 162 1.7 6.1 0.00 0.00 0.00 83 1017.2
20260508070404 51 152 2.6 5.2 0.00 0.00 0.00 83 1017.1
20260508065904 51 145 2.6 4.3 0.00 0.00 0.00 84 1017.0
20260508064904 50 126 2.6 4.3 0.00 0.00 0.00 85 1017.1
20260508064404 50 161 1.7 4.3 0.00 0.00 0.00 85 1017.1
20260508063404 50 143 2.6 7.8 0.00 0.00 0.00 86 1017.0
20260508062903 50 140 3.5 7.8 0.00 0.00 0.00 86 1017.0
20260508062404 49 138 4.3 7.8 0.00 0.00 0.00 86 1016.8
20260508061904 49 128 1.7 6.1 0.00 0.00 0.00 86 1016.8
20260508061404 49 145 2.6 6.1 0.00 0.00 0.00 86 1016.8
20260508060904 49 135 1.7 4.3 0.00 0.00 0.00 86 1016.7
20260508060404 49 153 1.7 6.1 0.00 0.00 0.00 87 1016.7
20260508054905 49 126 1.7 2.6 0.00 0.00 0.00 88 1016.7
20260508054404 49 128 0.9 2.6 0.00 0.00 0.00 87 1016.7
20260508053904 48 134 1.7 2.6 0.00 0.00 0.00 88 1016.6
20260508052905 48 124 0.9 2.6 0.00 0.00 0.00 88 1016.7
20260508051903 48 127 1.7 2.6 0.00 0.00 0.00 88 1016.6
20260508051404 48 133 0.9 2.6 0.00 0.00 0.00 88 1016.5
20260508050904 48 120 1.7 2.6 0.00 0.00 0.00 88 1016.5
20260508050405 48 134 0.0 1.7 0.00 0.00 0.00 88 1016.5
20260508045904 48 123 0.9 1.7 0.00 0.00 0.00 87 1016.5
20260508045404 48 117 0.0 1.7 0.00 0.00 0.00 87 1016.5
20260508044904 48 117 0.0 0.9 0.00 0.00 0.00 87 1016.5
20260508044404 48 117 0.0 1.7 0.00 0.00 0.00 87 1016.4
20260508043905 48 114 0.0 1.7 0.00 0.00 0.00 87 1016.4
20260508043404 48 107 0.9 2.6 0.00 0.00 0.00 87 1016.4
20260508042904 48 110 0.0 2.6 0.00 0.00 0.00 87 1016.4
20260508041904 48 125 0.9 2.6 0.00 0.00 0.00 86 1016.4
20260508040904 48 134 0.0 0.9 0.00 0.00 0.00 86 1016.3
20260508035904 48 134 0.0 1.7 0.00 0.00 0.00 85 1016.3
20260508034904 49 134 0.0 0.9 0.00 0.00 0.00 86 1016.2
20260508034404 49 134 0.0 1.7 0.00 0.00 0.00 85 1016.3
20260508033904 49 134 0.0 1.7 0.00 0.00 0.00 85 1016.2
20260508033403 49 134 0.0 1.7 0.00 0.00 0.00 85 1016.2
20260508032904 49 134 0.0 0.9 0.00 0.00 0.00 85 1016.2
20260508032404 49 134 0.0 0.9 0.00 0.00 0.00 85 1016.3
20260508031404 49 109 0.0 1.7 0.00 0.00 0.00 85 1016.3
20260508030903 49 105 0.0 2.6 0.00 0.00 0.00 85 1016.2
20260508030404 49 133 0.9 2.6 0.00 0.00 0.00 85 1016.3
20260508025904 49 142 1.7 2.6 0.00 0.00 0.00 85 1016.3
20260508025404 49 162 0.9 2.6 0.00 0.00 0.00 84 1016.3
20260508024904 49 133 1.7 2.6 0.00 0.00 0.00 84 1016.3
20260508024404 49 135 0.9 2.6 0.00 0.00 0.00 84 1016.3
20260508023903 49 156 0.9 2.6 0.00 0.00 0.00 84 1016.4
20260508022905 49 140 0.9 2.6 0.00 0.00 0.00 84 1016.4
20260508021904 50 135 0.9 1.7 0.00 0.00 0.00 84 1016.4
20260508021404 50 145 0.9 1.7 0.00 0.00 0.00 84 1016.3
20260508020904 50 145 0.0 1.7 0.00 0.00 0.00 84 1016.3
20260508015904 50 144 0.0 1.7 0.00 0.00 0.00 83 1016.3
20260508015404 50 149 0.0 1.7 0.00 0.00 0.00 83 1016.3
20260508014904 50 171 0.9 2.6 0.00 0.00 0.00 83 1016.2
20260508014404 50 148 0.9 2.6 0.00 0.00 0.00 83 1016.2
20260508013903 50 116 0.9 2.6 0.00 0.00 0.00 83 1016.2
20260508013404 50 173 0.9 1.7 0.00 0.00 0.00 83 1016.2
20260508012904 50 142 0.9 2.6 0.00 0.00 0.00 83 1016.2
20260508012404 50 146 1.7 2.6 0.00 0.00 0.00 82 1016.2
20260508011904 50 150 1.7 2.6 0.00 0.00 0.00 82 1016.2
20260508011404 50 161 1.7 2.6 0.00 0.00 0.00 82 1016.2
20260508010904 50 145 0.9 2.6 0.00 0.00 0.00 82 1016.2
20260508010404 50 120 1.7 2.6 0.00 0.00 0.00 82 1016.2
20260508005904 50 130 0.9 2.6 0.00 0.00 0.00 82 1016.2
20260508005404 50 105 0.9 2.6 0.00 0.00 0.00 82 1016.2
20260508004903 50 115 0.9 2.6 0.00 0.00 0.00 82 1016.3
20260508004404 50 129 0.9 2.6 0.00 0.00 0.00 81 1016.2
20260508002404 50 193 0.0 2.6 0.00 0.00 0.00 81 1016.4
20260508001904 50 182 1.7 2.6 0.00 0.00 0.00 81 1016.4
20260508001404 50 125 1.7 2.6 0.00 0.00 0.00 80 1016.3
20260508000904 50 137 0.9 2.6 0.00 0.00 0.00 80 1016.4
20260508000405 50 129 0.9 2.6 0.00 0.00 0.00 80 1016.4
20260507235904 50 125 0.9 2.6 0.00 0.00 0.00 80 1016.5
20260507235404 50 135 1.7 2.6 0.00 0.00 0.00 80 1016.5
20260507234904 50 150 1.7 2.6 0.00 0.00 0.00 79 1016.6
20260507233903 51 148 2.6 2.6 0.00 0.00 0.00 79 1016.6
20260507233404 51 150 0.9 2.6 0.00 0.00 0.00 79 1016.6
20260507231904 51 128 1.7 4.3 0.00 0.00 0.00 78 1016.6
20260507231404 51 144 2.6 4.3 0.00 0.00 0.00 78 1016.6
20260507230904 51 156 1.7 4.3 0.00 0.00 0.00 78 1016.6
20260507230404 51 140 2.6 6.1 0.00 0.00 0.00 77 1016.6
20260507225904 51 149 3.5 6.1 0.00 0.00 0.00 77 1016.6
20260507225405 51 161 2.6 7.0 0.00 0.00 0.00 77 1016.6
20260507224904 51 146 2.6 7.0 0.00 0.00 0.00 76 1016.7
20260507224403 52 147 3.5 7.8 0.00 0.00 0.00 76 1016.8
20260507223404 52 131 2.6 6.1 0.00 0.00 0.00 76 1016.7
20260507222904 52 126 1.7 6.1 0.00 0.00 0.00 75 1016.8
20260507221904 52 138 2.6 7.8 0.00 0.00 0.00 75 1016.7
20260507221404 52 133 4.3 7.8 0.00 0.00 0.00 75 1016.7
20260507220904 52 130 2.6 7.8 0.00 0.00 0.00 74 1016.6
20260507220404 52 122 4.3 7.8 0.00 0.00 0.00 74 1016.7
20260507215911 52 119 2.6 7.8 0.00 0.00 0.00 74 1016.7
20260507215405 53 125 2.6 7.8 0.00 0.00 0.00 74 1016.8
20260507214904 53 143 3.5 7.0 0.00 0.00 0.00 74 1016.7
20260507214403 53 136 2.6 7.8 0.00 0.01 0.00 74 1016.7
20260507213904 53 141 3.5 7.8 0.00 0.01 0.00 74 1016.7
20260507212905 53 152 2.6 7.0 0.00 0.01 0.00 73 1016.7
20260507212403 53 174 2.6 7.0 0.00 0.01 0.00 73 1016.7
20260507211904 53 142 4.3 7.0 0.00 0.01 0.00 73 1016.7
20260507211403 53 135 2.6 7.8 0.00 0.01 0.00 73 1016.6
20260507210903 53 148 2.6 7.8 0.00 0.01 0.00 73 1016.6
20260507205904 53 127 2.6 7.8 0.00 0.01 0.00 72 1016.5
20260507205404 54 145 4.3 7.8 0.00 0.01 0.00 72 1016.5
20260507203904 54 137 3.5 7.8 0.00 0.01 0.00 71 1016.5
20260507203404 54 126 3.5 7.8 0.00 0.01 0.00 71 1016.4
20260507202904 54 130 3.5 7.8 0.00 0.01 0.00 70 1016.3
20260507202404 54 135 3.5 8.7 0.00 0.01 0.00 70 1016.3
20260507201904 54 137 4.3 10.4 0.00 0.01 0.00 70 1016.2
20260507201403 55 151 4.3 10.4 0.00 0.01 0.00 69 1016.1
20260507200904 55 161 2.6 10.4 0.00 0.01 0.00 69 1016.1
20260507200404 55 126 4.3 8.7 0.00 0.01 0.00 69 1016.0
20260507195905 55 125 6.1 8.7 0.00 0.01 0.00 68 1015.9
20260507194404 56 131 4.3 10.4 0.00 0.01 0.00 66 1015.8
20260507193903 56 154 4.3 8.7 0.00 0.01 0.00 65 1015.8
20260507193403 56 126 4.3 8.7 0.00 0.01 0.00 65 1015.7
20260507192904 56 131 3.5 7.8 0.00 0.01 0.00 64 1015.7
20260507192404 56 127 2.6 7.0 0.00 0.01 0.00 64 1015.7
20260507191903 56 120 3.5 7.0 0.00 0.01 0.00 64 1015.8
20260507190904 57 129 2.6 8.7 0.00 0.01 0.00 63 1015.6
20260507185905 57 130 4.3 8.7 0.00 0.01 0.00 63 1015.6
20260507185405 57 145 3.5 10.4 0.00 0.01 0.00 62 1015.6
20260507184905 57 131 3.5 10.4 0.00 0.01 0.00 62 1015.6
20260507183905 58 124 3.5 7.0 0.00 0.01 0.00 61 1015.4
20260507183405 58 123 2.6 7.8 0.00 0.01 0.00 60 1015.4
20260507182905 59 114 4.3 7.8 0.00 0.01 0.00 59 1015.4
20260507182406 59 127 2.6 7.8 0.00 0.01 0.00 58 1015.5
20260507181905 59 133 2.6 6.1 0.00 0.01 0.00 58 1015.4
20260507180905 60 133 2.6 7.0 0.00 0.01 0.00 55 1015.2
20260507180407 61 123 4.3 7.0 0.00 0.01 0.00 54 1015.2
20260507175905 61 120 4.3 7.0 0.00 0.01 0.00 52 1015.2
20260507175405 62 117 4.3 7.0 0.00 0.01 0.00 52 1015.1
20260507174905 62 124 2.6 7.0 0.00 0.01 0.00 51 1015.1
20260507174405 63 136 3.5 6.1 0.00 0.01 0.00 49 1015.1
20260507173905 64 150 1.7 8.7 0.00 0.01 0.00 48 1015.2
20260507173405 65 133 4.3 8.7 0.00 0.01 0.00 47 1015.3
20260507172905 66 125 4.3 8.7 0.00 0.01 0.00 46 1015.2
20260507172405 66 145 3.5 7.0 0.00 0.01 0.00 45 1015.2
20260507171905 66 136 2.6 7.8 0.00 0.01 0.00 46 1015.2
20260507171405 66 139 2.6 8.7 0.00 0.01 0.00 46 1015.1
20260507170905 66 163 4.3 8.7 0.00 0.01 0.00 45 1015.1
20260507170405 66 125 4.3 8.7 0.00 0.01 0.00 44 1015.1
20260507165905 65 118 4.3 8.7 0.00 0.01 0.00 46 1015.2
20260507164907 65 160 4.3 10.4 0.00 0.01 0.00 45 1015.2
20260507164404 65 121 2.6 10.4 0.00 0.01 0.00 47 1015.1
20260507163905 65 144 4.3 10.4 0.00 0.01 0.00 46 1015.2
20260507163405 65 129 4.3 10.4 0.00 0.01 0.00 46 1015.1
20260507162404 67 133 2.6 10.4 0.00 0.01 0.00 44 1015.2
20260507161905 67 143 5.2 11.3 0.00 0.01 0.00 43 1015.2
20260507161405 67 120 5.2 11.3 0.00 0.01 0.00 44 1015.2
20260507160405 66 146 1.7 10.4 0.00 0.01 0.00 44 1015.1
20260507155905 66 129 5.2 10.4 0.00 0.01 0.00 46 1015.2
20260507155405 66 130 5.2 10.4 0.00 0.01 0.00 46 1015.1
20260507154405 66 199 3.5 10.4 0.00 0.01 0.00 42 1015.1
20260507153905 66 128 4.3 10.4 0.00 0.01 0.00 42 1015.2
20260507153405 67 148 5.2 8.7 0.00 0.01 0.00 42 1015.3
20260507152905 66 129 2.6 7.8 0.00 0.01 0.00 44 1015.4
20260507152405 66 163 5.2 8.7 0.00 0.01 0.00 44 1015.5
20260507151405 67 124 4.3 8.7 0.00 0.01 0.00 45 1015.5
20260507150405 67 151 2.6 8.7 0.00 0.01 0.00 42 1015.6
20260507145905 67 114 4.3 8.7 0.00 0.01 0.00 42 1015.7
20260507145405 66 172 0.9 8.7 0.00 0.01 0.00 46 1015.7
20260507144906 65 167 2.6 10.4 0.00 0.01 0.00 43 1015.8
20260507144405 65 133 2.6 10.4 0.00 0.01 0.00 43 1015.8
20260507142904 65 142 4.3 8.7 0.00 0.01 0.00 44 1015.8
20260507142405 65 129 5.2 8.7 0.00 0.01 0.00 44 1015.8
20260507141905 64 47 2.6 10.4 0.00 0.01 0.00 47 1015.8
20260507141405 63 146 5.2 10.4 0.00 0.01 0.00 46 1015.9
20260507140904 62 176 1.7 7.8 0.00 0.01 0.00 48 1015.8
20260507140406 61 101 4.3 7.8 0.00 0.01 0.00 48 1015.9
20260507135905 60 132 0.9 7.0 0.00 0.01 0.00 52 1015.9
20260507135404 60 141 2.6 7.0 0.00 0.01 0.00 52 1015.9
20260507134405 60 129 2.6 7.8 0.00 0.01 0.00 50 1016.1
20260507133905 60 134 4.3 7.8 0.00 0.01 0.00 49 1016.1
20260507133404 61 128 2.6 8.7 0.00 0.01 0.00 49 1016.0
20260507132905 62 166 2.6 8.7 0.00 0.01 0.00 48 1016.1
20260507132405 62 173 3.5 7.8 0.00 0.01 0.00 47 1016.1
20260507131906 62 165 3.5 8.7 0.00 0.01 0.00 49 1016.0
20260507131405 61 64 2.6 8.7 0.00 0.01 0.00 52 1016.0
20260507130905 61 140 3.5 10.4 0.00 0.01 0.00 51 1016.0
20260507125904 59 111 3.5 10.4 0.00 0.01 0.00 53 1016.1
20260507125405 59 135 1.7 7.8 0.00 0.01 0.00 55 1016.0
20260507124905 58 153 0.9 6.1 0.00 0.01 0.00 58 1016.0
20260507124406 57 160 1.7 6.1 0.00 0.01 0.00 56 1016.0
20260507123905 57 156 1.7 6.1 0.00 0.01 0.00 58 1016.0
20260507123405 57 135 1.7 6.1 0.00 0.01 0.00 57 1016.1
20260507122904 57 183 2.6 6.1 0.00 0.01 0.00 56 1016.2
20260507121904 58 150 2.6 7.0 0.00 0.01 0.00 56 1016.2
20260507121404 59 150 3.5 7.0 0.00 0.01 0.00 55 1016.3
20260507120905 59 132 2.6 7.0 0.00 0.01 0.00 54 1016.3
20260507120404 60 141 2.6 8.7 0.00 0.01 0.00 54 1016.3
20260507115905 61 129 2.6 8.7 0.00 0.01 0.00 54 1016.4
20260507115404 61 118 5.2 10.4 0.00 0.01 0.00 53 1016.4
20260507113905 62 125 4.3 10.4 0.00 0.01 0.00 51 1016.4
20260507113405 62 134 5.2 10.4 0.00 0.01 0.00 51 1016.4
20260507112405 61 96 4.3 10.4 0.00 0.01 0.00 54 1016.3
20260507111905 61 156 4.3 8.7 0.00 0.01 0.00 52 1016.4
20260507111405 60 193 2.6 7.0 0.00 0.01 0.00 56 1016.3
20260507110904 60 112 1.7 4.3 0.00 0.01 0.00 55 1016.4
20260507110405 60 186 1.7 5.2 0.00 0.01 0.00 54 1016.4
20260507105905 60 196 1.7 5.2 0.00 0.01 0.00 55 1016.4
20260507104904 60 183 2.6 8.7 0.00 0.01 0.00 53 1016.5
20260507104405 59 113 1.7 5.2 0.00 0.01 0.00 56 1016.5
20260507103905 59 145 1.7 7.0 0.00 0.01 0.00 55 1016.6
20260507103404 59 143 2.6 8.7 0.00 0.01 0.00 58 1016.7
20260507102905 58 146 2.6 8.7 0.00 0.01 0.00 59 1016.8
20260507102405 58 137 2.6 7.8 0.00 0.01 0.00 60 1016.7
20260507101905 58 155 3.5 7.8 0.00 0.01 0.00 62 1016.7
20260507101404 57 168 3.5 8.7 0.00 0.01 0.00 62 1016.7
20260507100905 57 145 4.3 8.7 0.00 0.01 0.00 64 1016.7
20260507100405 57 190 0.9 7.8 0.00 0.01 0.00 66 1016.6
20260507095904 56 96 4.3 7.8 0.00 0.01 0.00 65 1016.6
20260507094905 56 149 4.3 7.8 0.00 0.01 0.00 67 1016.9
20260507092904 54 145 1.7 10.4 0.00 0.01 0.00 70 1016.9
20260507092405 54 138 4.3 10.4 0.00 0.01 0.00 71 1016.9
20260507091905 53 170 2.6 7.0 0.00 0.01 0.00 73 1017.0